User: anonymous   Login
Location: Unspecified
(0.0000°N, 0.0000°E)
Time: 23:16:34
(UTC+00:00)
Language:

BEESAT - Orbit

View from above orbital plane
View from above orbital plane
View from above satellite
View from above satellite

Ground track
Ground track

The orbit data is extracted from the following two-line orbital elements,

1 35933U 09051C   18109.37375320 +.00000130 +00000-0 +40307-4 0  9999
2 35933 098.5405 260.6586 0006718 052.8651 307.3159 14.56250003454904
Epoch (UTC): 19 April 2018 08:58:12
Eccentricity: 0.0006718
inclination: 98.5405°
perigee height: 700 km
apogee height: 710 km
right ascension of ascending node: 260.6586°
argument of perigee: 52.8651°
revolutions per day: 14.56250003
mean anomaly at epoch: 307.3159°
orbit number at epoch: 45490

The dashed part of the orbit path shows where the satellite is in the earth's shadow,  

DLR